STARLINK-3780, 52278

Orbit data source: Space-Track

STARLINK-3780, 52278 is a payload satellite owned by SpaceX/Seattle (US) in LEO that was launched on Thu, 21 Apr 2022 UTC via an FALCON 9 launch vehicle from the Air Force Eastern Test Range (AFETR). Payload-class satellites include a variety of spacecraft equipped with specific instruments for various scientific and technological missions. These include communications satellites like Starlink; space stations such as the ISS; scientific satellites like the Hubble; Earth observation satellites from companies like Planet Labs, Umbra, and HawkEye 360; GPS; miniature CubeSats for education and research; and military/defense satellites.

Loading next visibility...
Identifier
52278, 2022-041T
Orbit
LEO
Country
Flag of USUS
Related business
Manufacturer
SpaceX/Seattle
Mission
Operational Commercial Communications
Bus & Motor
STARLINK, Unknown motor
Mass
297 kg wet, ~275 kg dry
Launch date (UTC)
2022-04-21 (4 years ago)
Launch vehicle
FALCON 9
Launch site
Air Force Eastern Test Range (AFETR)
Object type
Payload
Rocket body
Debris
Shape & HBR
Box + 1 Pan, 10.1 m
Radar Cross Section
11.087 m², Large (>1 m²)

Expand to show TLE details & history
Last TLE update: 11 hours ago

TLE from 11 hours ago
0 STARLINK-3780
1 52278U 22041T   26236.66668981  .00057758  00000-0  20651-2 0  9990
2 52278  53.1608  72.8326 0001474 109.0154 129.8025 15.28283006  5763
Epoch: 2026-08-24T16:00Z
TLE epoch observation values (Epoch: 2026-08-24T16:00:01.999Z)
Latitude
-43.41518°
Longitude
84.70191°
Altitude
496.171 km
Speed
7.616 km/s
True Right ascension
19h 50m 37s
True Declination
-43° 14' 13"
Sunlit
Object was in full shadow at epoch
Visualization orbit readout
Latitude
Unknown
Longitude
Unknown
Altitude
Unknown
Speed
Unknown
Apparent Right ascension
Unknown
Apparent Declination
Unknown
Sunlit
N/A
Visualization observer readout
Local Sidereal Time
18:14:58
Azimuth
Unknown
Elevation
Unknown
Doppler factor
Unknown
Orbital elements
Apogee altitude
482.212 km
Perigee altitude
480.19 km
Semi-major axis
6,859.338 km
Eccentricity
0.00015
Inclination
53.1608°
RAAN
72.8326°
Arg. of periapsis
109.0154°
True anomaly
129.81547°
Mean anomaly
129.8025°
Eccentric anomaly
129.80899°
Mean motion
3.8205 °/min
Orbital period
94.23 mins
BSTAR
0.0020651
Loading maneuver chart data...
Computing Atmospheric mass density...
Loading historical data...
Loading historical data...
Loading historical data...
Loading historical data...
Loading historical data...
Loading historical data...
Loading historical data...

Documentation

Showing up to 5 results
|